Tracking 18840 objects as of 18-November-2017
HD Live streaming from Space Station
objects crossing your sky now

FENGYUN 1C DEB

Track FENGYUN 1C DEB now!
10-day predictions


NORAD ID: 30152
Int'l Code: 1999-025TH
Perigee: 824.4 km
Apogee: 1,095.1 km
Inclination: 99.1 °
Period: 104.1 minutes
Semi major axis: 7330 km
RCS: 0.042 m2 (small)
Launch date: May 10, 1999
Source: People's Republic of China (PRC)
Launch site: Taiyaun Space Center, China (TSC)

Note: This is SATELLITE DEBRIS
aabbcc
Your satellite tracking list
Your tracking list is empty




NASA's NSSDC Master Catalog

Two Line Element Set (TLE):
1 30152U 99025TH  17322.21256171  .00001739  00000-0  14246-2 0  9995
2 30152  99.1264 211.9934 0184640 110.0157 252.0982 13.83187445545401
Source of the keplerian elements: AFSPC